Location: Colorado Springs
(38.8340°N, 104.8210°W)
Time: 21:31:57
(UTC-07:00)

Vanguard 1 Rocket - All Passes

Search period start: 20 January 2018 00:00
Search period end: 30 January 2018 00:00
Orbit: 656 x 4222 km, 34.3° (Epoch: 20 January)

Date Brightness Start Highest point End Pass type
(mag) Time Alt. Az. Time Alt. Az. Time Alt. Az.
20 Jan - 04:09:45 10° SSW 04:22:39 24° SSE 04:31:04 10° ESE visible
20 Jan - 06:37:06 10° SW 06:50:07 46° SSE 06:57:05 10° E visible
20 Jan - 09:07:06 10° WSW 09:15:52 60° S 09:20:59 10° ESE daylight
20 Jan - 11:35:30 10° W 11:40:20 31° SSW 11:44:14 10° SE daylight
21 Jan - 02:59:10 10° S 03:09:51 17° SSE 03:17:53 10° ESE visible
21 Jan - 05:23:23 10° SW 05:38:14 39° SSE 05:46:29 10° E visible
21 Jan - 07:53:29 10° WSW 08:04:48 60° S 08:10:50 10° E daylight
21 Jan - 10:23:08 10° W 10:29:52 47° SSW 10:34:22 10° ESE daylight
21 Jan - 12:52:06 10° SW 12:53:46 12° SSW 12:55:25 10° S daylight
22 Jan - 04:10:11 10° SSW 04:25:50 31° SSE 04:35:18 10° E visible
22 Jan - 06:39:21 10° WSW 06:53:21 54° SSE 07:00:36 10° E visible
22 Jan - 09:10:06 10° W 09:19:09 60° S 09:24:22 10° ESE daylight
22 Jan - 11:38:58 10° W 11:43:26 24° SSW 11:47:03 10° SSE daylight
23 Jan - 02:58:10 10° S 03:12:59 23° SSE 03:23:06 10° ESE visible
23 Jan - 05:25:05 10° SW 05:41:25 47° SSE 05:50:05 10° E visible
23 Jan - 07:56:16 10° WSW 08:08:04 64° S 08:14:15 10° E daylight
23 Jan - 10:26:19 10° W 10:33:04 41° SSW 10:37:32 10° SE daylight
24 Jan - 01:48:32 10° S 01:59:47 16° SE 02:08:44 10° ESE visible
24 Jan - 04:11:10 10° SW 04:28:58 39° SSE 04:39:09 10° E visible
24 Jan - 06:41:47 10° WSW 06:56:34 61° S 07:04:02 10° E visible
24 Jan - 09:13:07 10° W 09:22:23 57° SSW 09:27:41 10° ESE daylight
24 Jan - 11:42:42 10° WSW 11:46:25 18° SW 11:49:33 10° S daylight
25 Jan - 02:58:12 10° SSW 03:16:01 31° SSE 03:27:28 10° E visible
25 Jan - 05:27:03 10° SW 05:44:34 55° SSE 05:53:36 10° E visible
25 Jan - 07:59:07 10° W 08:11:19 66° S 08:17:39 10° ESE daylight
25 Jan - 10:29:33 10° W 10:36:09 34° SSW 10:40:34 10° SE daylight
26 Jan - 01:46:54 10° S 02:02:45 22° SE 02:14:24 10° E visible
26 Jan - 04:12:34 10° SW 04:32:02 47° SSE 04:42:47 10° E visible
26 Jan - 06:44:22 10° WSW 06:59:46 67° S 07:07:27 10° E visible
26 Jan - 09:16:09 10° W 09:25:34 52° SSW 09:30:57 10° ESE daylight
26 Jan - 11:47:01 10° WSW 11:49:19 12° SW 11:51:21 10° SSW daylight
27 Jan - 00:39:01 10° SSE 00:49:17 14° SE 00:58:06 10° ESE visible
27 Jan - 02:58:54 10° SSW 03:18:59 38° SSE 03:31:22 10° E visible
27 Jan - 05:29:15 10° WSW 05:47:41 62° SSE 05:57:02 10° E visible
27 Jan - 08:01:59 10° W 08:14:32 65° S 08:20:59 10° ESE daylight
27 Jan - 10:32:53 10° W 10:39:07 27° SW 10:43:25 10° SSE daylight
28 Jan - 01:46:35 10° SSW 02:05:35 29° SE 02:18:58 10° E visible
28 Jan - 04:14:17 10° SW 04:35:03 55° SSE 04:46:16 10° E visible
28 Jan - 06:47:03 10° WSW 07:02:57 70° S 07:10:49 10° E daylight
28 Jan - 09:19:11 10° W 09:28:40 45° SSW 09:34:06 10° SE daylight
29 Jan - 00:36:28 10° S 00:52:02 20° SE 01:04:38 10° E visible
29 Jan - 03:00:03 10° SW 03:21:53 46° SSE 03:35:02 10° E visible
29 Jan - 05:31:38 10° WSW 05:50:48 68° S 06:00:25 10° E visible
29 Jan - 08:04:52 10° W 08:17:41 62° SSW 08:24:18 10° ESE daylight
29 Jan - 10:36:25 10° W 10:41:58 21° SW 10:45:58 10° S daylight
29 Jan - 23:32:10 10° SSE 23:38:31 11° SE 23:44:30 10° ESE visible
